sat.trackr.live / text

‹ back to catalog

STARLINK-34378

NORAD 64299 · 2025-123J

PAYLOAD ACTIVE UNKNOWN

§ Identity

Operator
Country
US
Launch date
2025-06-08
Launch site
AFWTR
Launch vehicle
Mass (kg)
RCS (m²)

Purposes: comms

External: N2YO · Heavens-Above · Gunter

§ Orbital elements

Epoch: 2026-05-25T00:40:20.584128Z

Period
96.11 min
Inclination
70.0051°
Eccentricity
0.0002743
Mean motion
14.98319071 rev/d
Perigee alt
570.2 km
Apogee alt
574.0 km
Semi-major
6,950.2 km
B*
1.3044e-3
RAAN
1.9713°
Arg perigee
312.3159°
Mean anomaly
47.7767°
Rev number
5,305

§ Raw data

STARLINK-343781 64299U 25123J   26145.02801602  .00015501  00000+0  13044-2 0  99952 64299  70.0051   1.9713 0002743 312.3159  47.7767 14.98319071 53050

JSON: /api/v1/satellites/64299 · /tle

For live sub-satellite position, see the globe view (requires WebGL).

§ Visibility from observer

Set your observer location to see the next 7 days of passes ≥ 10°. The values pass through the URL so the page stays shareable.

No JS? Fill the form by hand. The geolocation button needs JavaScript.